User: anonymous   Login
Location: Palomar Mountain Lodge
(33.3110°N, 116.8495°W)
Time: 11:51:30
(UTC-07:00)
Language:

CZ-2C R/B - Orbit

View from above orbital plane
View from above orbital plane
View from above satellite
View from above satellite

Ground track
Ground track

The orbit data is extracted from the following two-line orbital elements,

1 31114U 07010B   19108.64260839 -.00000020  00000-0  93868-5 0  9997
2 31114  98.3204 343.7543 0060863  67.6929 293.0686 14.19291897622622
Epoch (UTC): 18 April 2019 15:25:21
Eccentricity: 0.0060863
inclination: 98.3204°
perigee height: 784 km
apogee height: 871 km
right ascension of ascending node: 343.7543°
argument of perigee: 67.6929°
revolutions per day: 14.19291897
mean anomaly at epoch: 293.0686°
orbit number at epoch: 62262

The dashed part of the orbit path shows where the satellite is in the earth's shadow,  

DLR